#timestamp,LO_Frequency,Hit,StdDev 
1585062015.1,286047001.2,N
1585062035.9,286046999.8,N
1585062055.7,286047000.6,N
1585062075.5,286046999.3,N
1585062095.4,286046999.3,N
1585062115.2,286047001.1,N
1585062135.0,286047000.7,N
1585062136.0,286047000.7,N
1585062155.8,286046998.1,N
1585062175.6,286046998.2,N
1585062195.5,286046998.4,N
1585062215.3,286047002.8,N
1585062235.1,286047002.5,N
1585062255.9,286047001.9,N
1585062275.7,286047003.9,Y
1585062295.6,286047002.6,P
1585062315.4,286047002.2,N
1585062335.2,286046999.8,N
1585062355.1,286047000.4,N
1585062356.0,286047000.4,N
1585062375.8,286047000.5,N
1585062395.7,286046999.9,N
1585062415.5,286047000.5,N
1585062435.3,286047000.8,N
1585062455.2,286047002.4,N
1585062475.0,286047001.9,N
1585062475.9,286047001.9,N
1585062495.7,286047000.2,N
1585062515.6,286047002.6,N
1585062535.4,286047002.2,N
1585062555.3,286047004.0,Y
1585062575.1,286046999.7,P
1585062595.9,286046998.1,N
1585062615.7,286046999.8,N
1585062635.5,286047002.5,N
1585062655.4,286047000.4,N
1585062675.2,286047001.3,N
1585062695.0,286047003.0,N
1585062695.9,286047003.0,N
1585062715.8,286047007.6,Y
1585062735.6,286047002.1,P
1585062755.5,286047002.5,P
1585062775.3,286047000.9,N
1585062795.1,286047000.1,N
1585062815.9,286047000.6,N
1585062835.7,286047000.0,N
1585062855.6,286047000.9,N
1585062875.4,286047001.0,N
1585062895.2,286046998.5,N
1585062915.1,286046998.2,N
1585062916.0,286046998.2,N
1585062935.8,286046998.4,N
1585062955.6,286046998.3,N
1585062975.5,286046998.5,N
1585062995.3,286046998.3,N
1585063015.2,286046998.8,N
1585063035.9,286046998.4,N
1585063055.7,286047000.6,N
1585063075.6,286046998.8,N
1585063095.4,286046999.4,N
1585063115.3,286047002.8,N
1585063135.1,286046998.2,N
1585063136.0,286046998.2,N
1585063155.8,286046996.6,N
1585063175.7,286046996.6,N
1585063195.5,286046999.2,N
1585063215.3,286046996.5,N
1585063235.2,286046996.7,N
1585063255.0,286046997.0,N
1585063255.9,286046997.0,N
1585063275.8,286046996.6,N
1585063295.6,286047000.2,N
1585063315.4,286047000.1,N
1585063335.3,286047002.4,N
1585063355.1,286047001.4,N
1585063375.9,286047005.8,Y
1585063395.7,286047005.1,P
1585063415.5,286047003.7,N
1585063435.4,286047003.2,N
1585063455.2,286047004.2,N
1585063475.1,286047004.0,N
1585063476.0,286047004.0,N
1585063495.8,286047001.7,N
1585063515.6,286047002.9,N
1585063535.5,286047001.9,N
1585063555.3,286047002.5,N
1585063575.1,286047001.2,N
1585063595.9,286047001.2,N
1585063615.7,286047002.1,N
1585063635.6,286047002.2,N
1585063655.4,286046998.6,N
1585063675.2,286046998.3,N
1585063695.1,286047000.1,N
1585063696.0,286047000.1,N
1585063715.8,286047002.7,N
1585063735.7,286047001.9,N
1585063755.5,286047003.1,N
1585063775.3,286047001.5,N
1585063795.2,286047002.4,N
1585063815.0,286047001.6,N
1585063815.9,286047001.6,N
1585063835.8,286046999.9,N
1585063855.6,286047001.0,N
1585063875.4,286047000.2,N
1585063895.3,286047000.2,N
1585063915.1,286047000.4,N
1585063935.9,286047002.4,N
1585063955.7,286047002.3,N
1585063975.5,286047000.4,N
1585063995.4,286046999.9,N
1585064015.2,286046999.8,N
1585064035.0,286047001.1,N
1585064035.9,286047001.1,N
1585064055.8,286047000.3,N
1585064075.6,286047001.3,N
1585064095.5,286047001.3,N
1585064115.3,286046999.9,N
1585064135.1,286047002.7,N
1585064155.9,286047000.1,N
1585064175.7,286046999.8,N
1585064195.6,286047000.6,N
1585064215.4,286046999.7,N
1585064235.2,286047001.8,N
1585064255.1,286047005.5,Y
1585064256.0,286047005.5,P
1585064275.8,286047003.6,N
1585064295.7,286047001.7,N
1585064315.5,286047002.6,N
1585064335.3,286046999.7,N
1585064355.2,286046998.1,N
1585064375.0,286047000.4,N
1585064375.9,286047000.4,N
1585064395.7,286046998.6,N
1585064415.6,286046999.1,N
1585064435.4,286046999.3,N
1585064455.3,286047000.5,N
1585064475.1,286046999.7,N
1585064495.8,286047001.9,N
1585064515.7,286047003.9,N
1585064535.5,286047003.9,N
1585064555.4,286047005.7,N
1585064575.2,286047004.7,N
1585064595.0,286047003.5,N
1585064595.9,286047003.5,N
1585064615.8,286047004.4,N
1585064635.6,286047001.6,N
1585064655.4,286047000.3,N
1585064675.3,286046999.9,N
1585064695.1,286047002.5,N
1585064715.9,286047000.0,N
1585064735.7,286047000.9,N
1585064755.5,286047001.6,N
1585064775.4,286047003.4,N
1585064795.2,286047001.5,N
1585064815.1,286047002.8,N
1585064816.0,286047002.8,N
1585064835.8,286047000.3,N
1585064855.6,286047002.3,N
1585064875.5,286047000.0,N
1585064895.3,286047002.5,N
1585064915.2,286047001.9,N
1585064935.9,286047002.0,N
1585064955.7,286047002.2,N
1585064975.6,286047001.5,N
1585064995.4,286047002.1,N
1585065015.2,286047002.0,N
1585065035.1,286047002.5,N
1585065036.0,286047002.5,N
1585065055.8,286047002.4,N
1585065075.7,286047002.7,N
1585065095.5,286047000.5,N
1585065115.3,286047002.3,N
1585065135.2,286047001.0,N
1585065155.0,286047000.2,N
1585065155.9,286047000.2,N
1585065175.8,286046999.7,N
1585065195.6,286047004.0,Y
1585065215.4,286047003.7,P
1585065235.3,286047002.5,N
1585065255.1,286046999.8,N
1585065275.8,286046998.5,N
1585065295.7,286047002.6,N
1585065315.5,286047000.5,N
1585065335.4,286046997.0,N
1585065355.2,286046999.2,N
1585065375.0,286046999.7,N
1585065375.9,286046999.7,N
1585065395.8,286047000.5,N
1585065415.6,286046999.3,N
1585065435.4,286046996.5,N
1585065455.3,286046997.0,N
1585065475.1,286046998.7,N
1585065495.9,286047002.7,N
1585065515.7,286047000.7,N
1585065535.5,286047000.8,N
1585065555.4,286046998.9,N
1585065575.2,286046997.2,N
1585065595.1,286046998.0,N
1585065596.0,286046998.0,N
